Location: Kellogg
(38.0159°N, 90.0546°W)
Time: 20:21:35
(UTC+00:00)

Vanguard 1 - Pass Details

Date: 16 September 2024
Orbit: 648 x 3825 km, 34.3° (Epoch: 11 October)

Event Time Altitude Azimuth Distance (km) Brightness Sun altitude
Rises 17:45:17 0° 238° (WSW) 6,931 14.6 54.2°
Reaches altitude 10° 17:50:43 10° 234° (SW) 5,433 14.3 54.2°
Maximum altitude 18:04:19 52° 164° (SSE) 2,024 13.9 54.2°
Drops below altitude 10° 18:11:44 10° 90° (E) 3,062 12.7 54.0°
Sets 18:13:57 0° 85° (E) 3,769 13.0 54.0°
